Wind_Speed
5 1 3 3 5 5 6 5 6 5 5 4 5 4 4 4 6 5 4 4 5 5 4 3 4 4 3 3 4 5 6 8 9 11 12 12 14 14 15 14 15 11 9
2 3 3 2 3 3 4 4 5 5 5 4 5 5 4 4 5 4 3 3 4 4 3 3 3 3 3 4 5 5 6 7 9 10 11 14 14 11 13 12 10 9 11
10 7 5 3 2 1 2 4 4 3 4 4 5 5 4 4 5 4 3 3 3 3 3 2 2 2 3 4 6 7 7 8 10 11 12 11 9 11 10 8 5 4 6
9 8 6 4 3 1 2 3 4 5 3 3 5 5 4 4 4 4 3 2 2 2 2 2 2 3 4 6 8 8 7 8 8 10 11 8 8 12 12 6 4 3 7
9 10 8 6 5 4 2 2 2 3 4 5 2 5 4 4 4 4 3 2 1 1 2 3 3 4 5 7 8 7 6 7 9 11 6 6 12 10 8 1 4 12 7
11 12 10 7 7 5 4 2 1 1 2 2 2 1 3 4 4 4 4 3 1 1 3 3 3 5 6 8 9 8 7 9 11 11 7 11 8 8 6 1 10 11 6
16 12 12 9 7 6 5 4 2 2 1 1 1 1 1 2 3 4 4 3 2 0 1 2 3 6 7 8 10 9 8 8 10 9 3 11 8 7 6 5 4 7 12
19 15 15 12 9 7 6 6 5 5 3 3 3 2 3 3 2 3 3 3 3 2 2 3 4 7 8 9 10 9 7 7 8 7 9 12 6 5 4 10 5 6 1
22 18 17 17 15 11 9 8 9 8 6 5 4 4 4 4 5 6 5 5 4 4 4 4 4 6 8 9 9 6 4 6 6 9 9 15 6 5 4 8 7 1 2
19 26 22 21 21 18 15 12 10 11 9 7 6 5 4 5 7 8 8 8 7 6 5 4 3 5 8 10 10 6 3 5 6 8 8 13 9 9 6 5 8 7 3
22 23 29 27 25 24 21 18 15 14 12 10 8 7 7 8 8 9 9 9 9 9 7 5 2 4 7 9 11 9 4 6 6 9 10 17 15 11 8 5 7 7 8
18 27 26 32 30 28 28 24 22 18 16 14 11 10 10 11 10 10 10 10 9 9 9 7 5 4 5 6 8 8 7 5 7 11 11 15 13 9 9 10 9 8 7
16 16 28 30 33 33 31 29 27 24 21 19 15 13 13 13 12 12 10 10 9 9 9 9 7 7 7 6 6 5 5 6 3 11 10 10 12 11 15 13 17 18 10
21 17 22 31 34 34 36 34 31 29 27 24 21 17 17 17 15 14 11 12 11 11 12 12 11 11 11 11 9 6 5 11 11 10 11 11 13 13 19 17 17 16 13
7 10 12 28 33 32 36 39 35 33 32 29 27 23 21 21 20 17 16 15 14 14 15 14 14 14 14 14 13 11 10 8 9 13 9 11 13 12 19 17 16 13 12
15 18 15 9 24 32 33 36 40 36 35 34 30 26 24 22 23 22 21 20 18 19 18 19 18 17 18 17 16 15 14 14 14 15 9 13 13 15 19 15 16 14 12
22 19 23 21 19 21 30 31 38 42 38 37 34 32 28 26 24 25 25 24 23 22 23 22 22 22 22 22 21 19 18 18 18 18 14 13 14 14 15 10 17 14 13
33 32 29 31 29 29 24 31 36 44 45 39 38 36 35 29 28 28 29 28 27 28 27 26 25 25 26 26 26 26 25 21 21 21 19 16 15 13 14 11 14 17 15
31 33 34 32 30 33 34 35 35 37 44 43 41 41 39 37 33 33 32 30 29 32 33 32 31 30 29 29 31 30 29 28 25 25 23 21 16 14 12 14 12 19 19
27 30 30 33 33 36 37 39 47 38 29 42 43 44 43 44 40 39 38 36 33 36 37 35 36 37 35 32 32 34 32 34 31 29 25 25 22 16 14 14 15 15 25
25 26 30 33 36 36 37 42 44 43 36 37 46 44 46 48 50 44 44 43 39 41 41 40 39 39 40 38 34 36 35 35 36 33 31 28 28 20 17 16 16 15 15
32 33 33 35 37 40 42 39 43 48 46 40 38 44 42 47 53 52 51 50 48 46 46 49 46 45 44 43 39 39 40 39 38 38 34 31 29 28 20 19 19 17 18
40 40 37 37 42 42 46 48 46 45 50 49 45 42 47 47 49 55 53 55 50 52 50 55 50 50 48 46 43 45 47 43 39 38 37 34 33 31 29 26 23 21 21
36 36 36 36 36 43 47 51 53 53 50 54 56 48 44 49 50 51 51 52 51 53 51 51 50 54 51 51 49 49 49 45 41 39 38 35 35 32 30 30 29 23 23
31 34 37 38 40 38 40 47 54 58 58 56 55 57 56 49 53 54 53 51 54 52 50 51 52 49 52 50 52 48 38 35 39 50 38 40 35 32 31 28 28 23 24
29 30 35 39 42 43 44 43 44 55 62 64 60 57 55 55 45 58 54 53 52 53 52 50 49 48 51 50 46 46 49 45 55 47 49 46 41 37 35 30 24 23 24
Wind_Direction
298 329 96 346 334 331 29 39 61 66 67 78 81 75 39 45 48 66 105 100 92 80 71 57 44 36 23 358 332 323 317 317 314 314 316 319 321 319 312 309 321 299 245
268 160 129 313 304 316 22 26 50 63 74 77 86 85 60 67 64 66 90 86 81 74 60 43 30 12 354 337 324 324 322 319 316 318 318 312 311 316 320 305 316 288 247
145 177 172 228 232 308 37 31 19 48 65 78 83 95 88 82 71 74 79 82 73 52 36 31 8 343 331 320 311 311 313 318 320 316 317 328 325 327 321 314 320 276 194
166 181 188 195 185 164 46 40 16 0 7 74 92 94 98 95 89 94 100 89 64 22 6 358 342 331 318 304 308 309 318 320 319 317 318 318 338 337 339 339 17 136 162
184 187 198 188 169 146 99 67 23 13 358 359 61 117 122 110 110 120 129 120 94 356 337 332 329 332 326 320 313 311 312 299 299 311 287 303 342 334 330 113 88 106 103
213 198 207 181 175 155 141 125 64 74 35 21 2 93 133 135 135 142 145 143 136 344 341 342 349 335 329 324 317 311 299 293 310 308 306 328 0 336 309 134 182 202 134
229 207 214 202 188 170 162 168 179 166 164 128 144 143 152 155 154 163 164 167 177 325 317 336 334 331 333 328 321 310 300 300 307 332 75 328 338 331 290 74 318 178 152
240 223 222 221 214 197 191 193 196 195 183 188 183 189 188 176 187 201 214 204 208 247 268 300 320 336 344 335 330 316 307 295 300 283 314 311 325 331 269 314 289 165 101
248 240 229 234 229 225 217 215 212 208 203 199 199 208 201 200 198 200 213 218 223 238 249 285 317 340 356 357 354 339 320 284 309 276 250 350 299 298 283 301 223 342 323
252 247 238 234 238 235 226 224 231 224 216 208 210 211 223 232 216 209 212 210 212 224 243 267 309 342 6 12 11 6 325 313 302 316 317 326 277 293 290 282 243 280 277
255 255 246 238 238 241 238 231 231 236 229 226 229 232 241 233 225 222 220 214 208 214 227 238 277 340 6 10 17 22 356 300 310 293 311 322 308 275 277 263 243 248 257
287 259 249 244 242 242 244 239 236 237 239 239 239 246 248 238 234 234 231 226 221 223 223 226 246 297 336 355 10 19 9 327 314 308 288 309 330 305 294 259 247 235 246
266 288 257 245 245 243 246 244 244 241 241 246 247 247 250 243 236 237 239 237 228 226 232 240 252 271 291 313 330 359 350 318 335 317 276 308 316 306 297 273 260 242 238
265 261 282 257 244 246 248 247 244 245 244 243 251 251 249 245 243 240 236 239 235 230 233 238 247 261 276 292 306 319 314 317 325 337 317 319 326 304 307 282 258 235 227
246 256 267 283 264 248 246 245 244 246 245 244 244 249 249 248 249 251 248 240 240 240 243 244 254 257 267 278 292 305 302 299 276 320 299 318 321 307 310 288 246 242 209
227 230 220 256 288 262 252 246 242 242 245 245 245 246 246 247 251 253 252 252 248 250 251 255 255 263 269 273 286 290 292 291 297 299 309 305 316 303 317 270 242 238 221
228 221 221 221 226 268 257 252 244 241 242 245 247 248 243 246 249 252 255 257 259 255 259 257 259 265 273 283 284 283 283 289 289 295 306 297 306 322 326 291 254 250 231
239 231 228 222 227 244 245 260 245 237 235 240 244 247 248 244 248 250 254 256 262 265 264 266 266 264 266 272 278 284 285 283 286 290 294 294 302 312 331 319 281 249 235
256 255 251 251 246 242 240 238 250 244 235 239 242 243 246 244 243 249 253 256 259 263 267 268 268 269 266 269 274 277 282 282 282 285 289 289 293 302 321 312 299 268 256
279 273 265 260 257 253 253 251 252 264 246 240 244 245 244 248 242 248 252 255 258 260 264 268 270 268 266 265 268 271 274 277 279 278 282 287 289 293 299 313 294 287 259
290 284 271 267 264 259 255 255 251 249 254 249 246 246 249 248 250 244 249 254 255 258 263 266 269 268 266 263 261 263 263 269 274 279 278 281 285 284 284 291 302 287 283
293 290 280 271 261 260 260 255 256 254 249 242 251 246 248 251 252 251 246 250 254 259 260 265 264 265 265 263 260 258 258 261 268 272 273 274 278 279 274 278 284 291 282
296 291 284 273 268 258 254 255 252 253 255 251 249 250 250 249 251 256 253 251 253 253 256 263 264 265 263 263 259 256 255 255 261 263 268 270 271 274 275 278 280 277 285
298 298 294 287 277 265 258 254 253 251 248 253 249 241 254 257 254 253 257 257 256 259 263 262 261 265 261 259 258 254 253 256 259 263 260 263 266 266 266 273 277 268 275
310 305 299 296 292 284 275 262 252 251 253 247 250 249 244 249 250 254 254 258 259 259 262 265 263 260 258 260 255 248 247 250 263 278 261 259 261 262 261 268 268 261 268
321 315 307 303 296 293 289 282 268 256 250 250 247 250 250 247 252 254 252 255 259 261 261 261 261 261 257 254 256 238 255 263 266 266 260 254 249 255 259 261 258 261 267
Height
3157 3159 3159 3159 3159 3158 3156 3155 3153 3152 3151 3151 3151 3151 3151 3152 3153 3154 3154 3155 3155 3154 3155 3155 3155 3155 3155 3154 3154 3154 3154 3155 3155 3154 3153 3152 3151 3150 3149 3147 3147 3146 3147
3157 3158 3158 3158 3158 3157 3156 3154 3153 3151 3151 3151 3150 3151 3151 3152 3153 3154 3155 3155 3155 3154 3155 3154 3154 3155 3155 3154 3154 3154 3155 3155 3154 3154 3153 3153 3151 3151 3149 3148 3146 3145 3145
3155 3156 3156 3157 3157 3156 3155 3154 3153 3151 3150 3150 3150 3150 3151 3151 3152 3154 3154 3155 3155 3155 3154 3154 3154 3154 3154 3154 3154 3154 3154 3154 3153 3152 3153 3153 3152 3151 3149 3147 3145 3144 3143
3154 3154 3154 3155 3155 3155 3155 3153 3153 3152 3151 3149 3149 3150 3150 3151 3152 3153 3154 3155 3155 3154 3154 3154 3154 3154 3153 3153 3153 3153 3153 3153 3151 3151 3150 3151 3150 3150 3148 3146 3144 3143 3142
3152 3153 3153 3153 3153 3153 3153 3152 3153 3151 3151 3151 3150 3149 3150 3151 3152 3153 3154 3154 3154 3154 3154 3153 3153 3153 3153 3152 3152 3152 3153 3151 3150 3150 3151 3148 3151 3149 3148 3146 3146 3144 3144
3151 3152 3152 3152 3152 3152 3152 3152 3152 3151 3150 3150 3150 3150 3149 3150 3151 3152 3153 3153 3153 3154 3154 3153 3153 3153 3152 3152 3151 3151 3151 3150 3150 3149 3150 3148 3150 3149 3149 3147 3145 3145 3145
3148 3152 3151 3151 3151 3151 3151 3151 3151 3150 3150 3150 3150 3150 3150 3150 3150 3151 3151 3152 3153 3153 3153 3153 3153 3152 3151 3151 3150 3150 3150 3150 3149 3148 3143 3148 3150 3150 3150 3148 3149 3147 3146
3147 3150 3150 3151 3151 3151 3150 3150 3150 3149 3149 3149 3149 3149 3149 3150 3150 3151 3152 3152 3152 3153 3153 3153 3152 3152 3151 3150 3149 3149 3149 3149 3148 3148 3147 3148 3150 3150 3150 3149 3149 3148 3148
3147 3148 3150 3149 3149 3149 3149 3149 3149 3148 3148 3148 3149 3149 3148 3148 3149 3149 3150 3151 3152 3152 3152 3153 3152 3151 3150 3149 3148 3148 3149 3148 3148 3147 3146 3149 3149 3148 3148 3149 3148 3147 3148
3144 3145 3147 3147 3148 3148 3147 3147 3148 3147 3147 3147 3148 3147 3148 3148 3147 3148 3148 3149 3150 3151 3151 3152 3152 3151 3150 3149 3148 3148 3148 3148 3148 3146 3146 3148 3147 3149 3147 3147 3147 3146 3148
3140 3140 3141 3144 3145 3146 3146 3146 3146 3146 3146 3145 3146 3146 3146 3146 3146 3147 3147 3148 3148 3149 3150 3151 3151 3151 3150 3150 3149 3148 3147 3147 3148 3147 3146 3145 3146 3146 3146 3145 3146 3146 3147
3136 3135 3137 3138 3140 3142 3143 3144 3144 3144 3144 3144 3144 3145 3145 3145 3146 3146 3147 3147 3148 3148 3148 3149 3149 3149 3149 3149 3149 3148 3147 3148 3147 3146 3146 3146 3144 3143 3144 3145 3145 3146 3146
3134 3131 3130 3132 3134 3137 3138 3140 3141 3141 3141 3142 3142 3143 3143 3144 3144 3144 3145 3146 3146 3147 3147 3148 3148 3148 3148 3149 3148 3147 3147 3147 3145 3145 3144 3146 3144 3144 3144 3143 3144 3145 3146
3130 3132 3126 3125 3127 3130 3131 3133 3136 3137 3138 3139 3139 3139 3140 3141 3142 3143 3144 3144 3145 3145 3145 3145 3146 3146 3146 3146 3147 3146 3145 3145 3142 3144 3144 3145 3143 3142 3142 3142 3142 3143 3144
3125 3124 3125 3120 3119 3123 3124 3126 3129 3131 3132 3134 3135 3136 3137 3138 3139 3140 3140 3142 3142 3143 3143 3144 3144 3144 3144 3144 3144 3144 3144 3144 3143 3142 3143 3143 3141 3140 3140 3139 3139 3140 3142
3114 3115 3117 3116 3114 3113 3116 3119 3121 3124 3125 3127 3129 3131 3133 3134 3135 3136 3137 3137 3139 3139 3140 3140 3141 3142 3142 3141 3141 3141 3142 3142 3142 3140 3140 3139 3139 3139 3137 3135 3137 3138 3139
3107 3108 3109 3109 3104 3108 3108 3110 3112 3115 3117 3120 3123 3125 3127 3128 3131 3132 3133 3133 3134 3136 3136 3137 3137 3136 3136 3137 3138 3138 3138 3139 3139 3139 3138 3138 3138 3137 3135 3134 3136 3137 3137
3096 3098 3097 3099 3098 3099 3102 3103 3101 3099 3100 3109 3115 3117 3119 3123 3124 3126 3127 3128 3129 3130 3131 3133 3133 3133 3132 3132 3133 3134 3134 3134 3135 3135 3135 3135 3136 3135 3134 3132 3134 3135 3136
3095 3096 3099 3100 3099 3092 3091 3093 3091 3084 3093 3094 3104 3109 3112 3115 3117 3118 3120 3122 3124 3123 3124 3126 3128 3128 3129 3128 3127 3127 3128 3128 3129 3130 3131 3131 3132 3132 3132 3130 3130 3132 3133
3091 3090 3091 3091 3094 3093 3090 3088 3083 3081 3063 3086 3095 3099 3103 3104 3110 3111 3111 3114 3116 3116 3116 3119 3120 3122 3123 3125 3124 3120 3122 3122 3123 3124 3126 3126 3126 3127 3128 3128 3128 3128 3130
3084 3085 3085 3086 3085 3084 3083 3082 3079 3076 3078 3083 3086 3091 3093 3095 3096 3103 3103 3105 3107 3107 3108 3108 3113 3114 3115 3118 3119 3117 3115 3116 3115 3118 3120 3121 3122 3123 3124 3124 3124 3124 3125
3079 3079 3078 3077 3076 3075 3075 3076 3075 3076 3074 3074 3077 3080 3084 3085 3084 3089 3095 3095 3098 3099 3099 3099 3102 3105 3106 3107 3111 3112 3108 3110 3109 3110 3114 3115 3116 3116 3119 3119 3119 3120 3121
3069 3068 3068 3068 3066 3065 3064 3064 3065 3066 3067 3068 3070 3070 3072 3076 3077 3075 3082 3085 3087 3087 3089 3091 3091 3094 3097 3098 3099 3101 3098 3099 3102 3103 3105 3109 3110 3110 3110 3112 3114 3114 3115
3063 3061 3058 3056 3055 3053 3053 3052 3051 3053 3053 3055 3057 3058 3063 3064 3066 3068 3069 3074 3076 3077 3077 3080 3083 3084 3086 3088 3088 3086 3087 3091 3092 3095 3096 3099 3102 3103 3104 3104 3105 3107 3108
3058 3054 3051 3047 3045 3044 3041 3039 3039 3039 3041 3041 3044 3046 3047 3050 3053 3055 3057 3060 3064 3066 3070 3070 3071 3071 3073 3077 3075 3069 3080 3081 3083 3082 3086 3090 3094 3096 3097 3098 3098 3099 3101
3054 3051 3046 3039 3036 3032 3029 3028 3026 3025 3026 3027 3030 3033 3037 3038 3040 3041 3049 3049 3051 3054 3057 3060 3061 3062 3064 3066 3068 3064 3070 3076 3076 3074 3075 3078 3081 3087 3089 3090 3091 3091 3094